Tongxin Jishu Shiyan 5

operational
NORAD ID: 44978 Int'l Des: 2020-002 Owner: CASC Country: CN
HEOCIRCULARGSO

Tongxin Jishu Shiyan 5について

説明を読み込み中...

リアルタイム位置

3D地球を読み込み中...

次回通過

高度履歴

Altitude vs Time

uPlot chart will show altitude changes over time

軌道要素

1 44978U 20002A 26061.89816963 -.00000359 00000-0 00000+0 0 9998
2 44978 0.2832 269.7409 0004057 120.4553 201.3294 1.00273114 22635
Epoch: Mar 2, 2026 • Age: 35 hours

現在のステータス

高度 35772.3 km
速度 3.08 km/s
衛星直下点 0.08°N, 107.57°E
打ち上げ日 Jan 7, 2020
運用期間 6.1 years
タイプ other

技術仕様

分類 Payload
質量 4000.00 kg
乾燥質量 2500.00 kg
総質量 4000.00 kg
長さ 5.00 m
直径 2.50 m
スパン 30.00 m
形状 Box+ 2 panels
製造者 SISE
バスタイプ FY-4
フェーズステータス In Orbit
所有者/国 CASC/CN

大規模コンステレーション

Loading constellations...